Lake Andrews Weather Center

Moon Phase Calendar



Lake Andrews Water Level
Online Cameras

 


      

Current Conditions in Georgetown
7/21/2024 2:51:59 AM

75°F
Feels Like 77
Clouds
Humidity
93%
Pressure
30.03"
Wind
4.3 mph (SSE)
Dew Point
73°F
UV Index
0/10 (Low)
Visibility
6 mi

Hourly Forecast

Date & Time Sun, Jul 21
2:00 AM
Sun, Jul 21
3:00 AM
Sun, Jul 21
4:00 AM
Sun, Jul 21
5:00 AM
Sun, Jul 21
6:00 AM
Sun, Jul 21
7:00 AM
Sun, Jul 21
8:00 AM
Sun, Jul 21
9:00 AM
Sun, Jul 21
10:00 AM
Sun, Jul 21
11:00 AM
Sun, Jul 21
12:00 PM
Sun, Jul 21
1:00 PM
Sun, Jul 21
2:00 PM
Sun, Jul 21
3:00 PM
Sun, Jul 21
4:00 PM
Sun, Jul 21
5:00 PM
Sun, Jul 21
6:00 PM
Sun, Jul 21
7:00 PM
Sun, Jul 21
8:00 PM
Sun, Jul 21
9:00 PM
Sun, Jul 21
10:00 PM
Sun, Jul 21
11:00 PM
Mon, Jul 22
12:00 AM
Mon, Jul 22
1:00 AM
Mon, Jul 22
2:00 AM
Mon, Jul 22
3:00 AM
Mon, Jul 22
4:00 AM
Mon, Jul 22
5:00 AM
Mon, Jul 22
6:00 AM
Mon, Jul 22
7:00 AM
Mon, Jul 22
8:00 AM
Mon, Jul 22
9:00 AM
Mon, Jul 22
10:00 AM
Mon, Jul 22
11:00 AM
Mon, Jul 22
12:00 PM
Mon, Jul 22
1:00 PM
Mon, Jul 22
2:00 PM
Mon, Jul 22
3:00 PM
Mon, Jul 22
4:00 PM
Mon, Jul 22
5:00 PM
Mon, Jul 22
6:00 PM
Mon, Jul 22
7:00 PM
Mon, Jul 22
8:00 PM
Mon, Jul 22
9:00 PM
Mon, Jul 22
10:00 PM
Mon, Jul 22
11:00 PM
Tue, Jul 23
12:00 AM
Tue, Jul 23
1:00 AM
Condition
Clouds

Clouds

Clouds

Clouds

Rain

Clouds

Clouds

Rain

Rain

Clouds

Clouds

Clouds

Clouds

Rain

Rain

Rain

Rain

Clouds

Rain

Rain

Rain

Clouds

Clouds

Clouds

Clouds

Rain

Rain

Rain

Clouds

Clouds

Clouds

Clouds

Clouds

Clouds

Clouds

Clouds

Clouds

Clouds

Clouds

Clouds

Clouds

Clouds

Rain

Rain

Clouds

Rain

Rain

Rain
Temperature 75°F75°F75°F74°F74°F73°F75°F77°F76°F78°F82°F83°F85°F85°F84°F79°F79°F81°F79°F76°F76°F75°F74°F73°F73°F72°F71°F72°F71°F72°F73°F76°F79°F80°F80°F80°F85°F87°F86°F84°F83°F82°F79°F76°F75°F73°F72°F72°F
Feels Like 76°F77°F76°F76°F75°F75°F76°F79°F77°F79°F86°F87°F89°F89°F90°F79°F79°F86°F79°F78°F77°F77°F76°F75°F74°F74°F73°F73°F73°F73°F75°F78°F80°F80°F83°F80°F89°F91°F91°F89°F88°F87°F79°F77°F76°F74°F73°F73°F
Cloudiness 98%100%96%92%91%90%90%97%99%99%99%99%100%100%100%100%100%98%91%100%100%100%100%96%89%72%71%80%77%80%83%80%86%89%92%93%95%100%100%100%100%100%100%100%100%97%95%92%
Visibility 6 mi6 mi6 mi6 mi6 mi6 mi6 mi6 mi6 mi6 mi6 mi6 mi6 mi6 mi6 mi6 mi6 mi6 mi6 mi6 mi6 mi6 mi6 mi6 mi6 mi6 mi6 mi6 mi6 mi6 mi6 mi6 mi6 mi6 mi6 mi6 mi6 mi6 mi6 mi6 mi6 mi6 mi6 mi6 mi6 mi5 mi6 mi6 mi
Precipitation 74%11%22%49%49%46%41%68%68%59%54%47%41%56%98%100%100%80%100%100%100%80%80%80%80%68%100%100%80%80%80%0%0%0%0%0%0%13%6%2%0%4%21%57%55%100%100%100%
Humidity 94%93%94%95%96%97%94%88%93%86%72%65%62%59%66%84%85%80%83%88%90%91%93%95%96%96%98%97%96%96%93%85%77%72%71%72%58%53%58%63%66%68%79%84%86%93%95%95%
Dew Point 73°F73°F73°F73°F72°F72°F73°F74°F74°F73°F72°F71°F70°F70°F71°F74°F74°F74°F74°F73°F73°F73°F72°F72°F72°F71°F71°F71°F71°F70°F71°F72°F71°F70°F70°F70°F69°F69°F70°F70°F71°F71°F72°F71°F71°F71°F71°F71°F
Pressure 30.03"30.03"30.03"30.03"30.03"30.06"30.06"30.09"30.06"30.06"30.06"30.06"30.03"30.03"30.03"30.03"30.03"30"30.03"30.03"30.03"30.03"30.03"30.03"30.03"30"30"30"30.03"30.03"30.06"30.06"30.06"30.06"30.06"30.06"30.06"30.03"30.03"30"30"30"30"30"30.03"30.03"30.06"30.06"
Wind Speed 4.4 mph4.3 mph4.3 mph3.3 mph3.2 mph3.5 mph2.6 mph5.4 mph3.5 mph5.7 mph7.4 mph5.4 mph4.9 mph5.1 mph5.1 mph5.9 mph3.4 mph2.6 mph2.1 mph3.2 mph3 mph2.4 mph3.6 mph4 mph4.2 mph3.7 mph4.9 mph3.8 mph3.9 mph3.7 mph2.5 mph3.5 mph3.2 mph2.6 mph3.7 mph5.6 mph6 mph8.8 mph9.9 mph8.6 mph7.7 mph7.7 mph6.1 mph5.7 mph5.1 mph4.3 mph5.2 mph5 mph
Wind
Direction
166°
SSE
160°
SSE
166°
SSE
187°
S
179°
S
195°
SSW
216°
SW
207°
SSW
187°
S
186°
S
199°
SSW
213°
SSW
248°
WSW
263°
W
223°
SW
199°
SSW
207°
SSW
286°
WNW
203°
SSW
184°
S
175°
S
211°
SSW
183°
S
176°
S
185°
S
204°
SSW
223°
SW
204°
SSW
227°
SW
239°
WSW
245°
WSW
262°
W
268°
W
231°
SW
196°
SSW
186°
S
190°
S
183°
S
182°
S
184°
S
179°
S
176°
S
168°
SSE
157°
SSE
183°
S
199°
SSW
162°
SSE
180°
S

Daily Forecast

Date High Low Precip. Humidity
Today
Jul 21

Rain
85 °F
73 °F
100%
65%
Monday
Jul 22

Rain
87 °F
71 °F
100%
72%
Tuesday
Jul 23

Rain
93 °F
71 °F
100%
48%
Wednesday
Jul 24

Rain
92 °F
73 °F
100%
47%
Thursday
Jul 25

Rain
91 °F
72 °F
100%
41%
Friday
Jul 26

Rain
91 °F
72 °F
100%
47%
Saturday
Jul 27

Clouds
92 °F
73 °F
0%
47%
Sunday
Jul 28

Rain
89 °F
73 °F
100%
69%
Monday
Jul 29

Rain
91 °F
74 °F
100%
48%
Tuesday
Jul 30

Rain
95 °F
75 °F
44%
42%
Wednesday
Jul 31

Clear
96 °F
76 °F
0%
37%
Thursday
Aug 1

Clouds
95 °F
79 °F
0%
54%
Friday
Aug 2

Rain
100 °F
79 °F
48%
34%
Saturday
Aug 3

Rain
97 °F
76 °F
67%
41%
Sunday
Aug 4

Rain
98 °F
77 °F
20%
37%
Monday
Aug 5

Clouds
102 °F
78 °F
0%
34%

Temperature 8-14 Day Outlook



Precipitation 8-14 Day Outlook






About Us
Contact Us
Site Map
Search Site
Advertise With Us
   
Andrews.USLakes.info
THE LAKE ANDREWS WEBSITE

Copyright 2024, Lakes Online
Privacy    |    Legal